Miscellaneous Local Product
Issued by NWS Hastings, NE

Home | Current Version | Previous Version | Text Only | Print | Product List | Glossary On
Versions: 1 2 3 4 5 6 7 8 9 10 11 12 13 14 15 16 17 18 19 20 21 22 23 24 25 26 27 28 29 30 31 32 33 34 35 36 37 38 39 40 41 42 43 44 45 46 47 48 49 50
839
AXUS43 KGID 062206
MISGRI

GID CWA HOURLY WEATHER ROUNDUP
NATIONAL WEATHER SERVICE HASTINGS NE
400 PM CST TUE DEC 06 2016

NOTE: "FAIR" INDICATES FEW OR NO CLOUDS BELOW 12,000 FEET WITH NO
SIGNIFICANT WEATHER AND/OR OBSTRUCTIONS TO VISIBILITY.

...SOUTH CENTRAL NEBRASKA...

CITY           SKY/WX    TMP DP  RH WIND       PRES   REMARKS
GRAND ISLAND   CLEAR     33   7  33 NW13      30.02S WCI  24
HASTINGS       CLEAR     34   7  32 NW13      30.03S WCI  25
KEARNEY        CLEAR     36   5  27 NW8       30.00F WCI  29
ORD            CLEAR     31   1  28 NW15      30.00R WCI  20
YORK           CLEAR     32   7  34 NW20      30.02S WCI  20
AURORA         CLEAR     33   7  33 NW15      30.02S WCI  23
LEXINGTON      SUNNY     35   6  29 NW12      29.99F WCI  26
HOLDREGE       SUNNY     34   4  28 W13       30.01R WCI  25
HEBRON         CLEAR     35   9  33 NW8       30.05R WCI  29

...NEBRASKA PANHANDLE...

CITY           SKY/WX    TMP DP  RH WIND       PRES   REMARKS
CHADRON        SUNNY     22   3  44 W16       29.99S WCI   8
ALLIANCE       SUNNY     22   3  44 N13       29.92R WCI  10
SCOTTSBLUFF    CLOUDY    25   0  33 NW5       29.92S WCI  19
SIDNEY         PTSUNNY   27  -4  26 NE3       29.92S

...WESTERN AND NORTH CENTRAL NEBRASKA...

CITY           SKY/WX    TMP DP  RH WIND       PRES   REMARKS
VALENTINE      CLEAR     22   4  46 NW15G28   29.99R WCI   9
AINSWORTH      CLEAR     24   4  43 NW23G31   29.98R WCI   8
ONEILL         CLEAR     26   6  43 NW23G29   29.99R WCI  11
BROKEN BOW     CLEAR     32   6  33 NW12      29.98S WCI  23
IMPERIAL       MOSUNNY   31  -1  25 N5        29.98R WCI  26
NORTH PLATTE   SUNNY     34   2  25 NW10      29.98F WCI  26
MCCOOK         SUNNY     35   2  24 NW10      30.01R WCI  27

...EASTERN NEBRASKA...

CITY           SKY/WX    TMP DP  RH WIND       PRES   REMARKS
NORFOLK        CLEAR     28   5  37 NW20G31   29.98R WCI  15
SO SIOUX CITY  CLEAR     30  11  45 NW21G28   29.96R WCI  17
TEKAMAH        CLEAR     32  12  43 W21G29    29.99R WCI  20
COLUMBUS       CLEAR     32   7  34 NW18G25   30.02R WCI  20
ALBION         CLEAR     31   2  29 NW15G21   30.00R WCI  20
OMAHA EPPLEY   CLEAR     33  10  38 NW17      30.00R WCI  22
MILLARD        CLEAR     33  11  40 NW14      30.01S WCI  24
LINCOLN        CLEAR     35   8  32 NW14      30.05R WCI  26
NEBRASKA CITY  CLEAR     34   5  29 NW15      30.03R WCI  24
BEATRICE       CLEAR     36  12  37 NW10      30.04S WCI  28
FALLS CITY     CLEAR     37  13  37 NW12      30.05R WCI  29

...NORTHERN KANSAS...

CITY           SKY/WX    TMP DP  RH WIND       PRES   REMARKS
GOODLAND       SUNNY     34  -6  18 CALM      29.95F
HILL CITY      SUNNY     37   4  25 W6        30.04S WCI  32
NORTON         CLEAR     36  -2  20 W7        30.02S WCI  30
PHILLIPSBURG   SUNNY     37   7  28 W9        30.05S WCI  31
SMITH CENTER   SUNNY     36   9  32 W7        30.06R WCI  30
BELOIT         SUNNY     37   7  28 NW7       30.06R WCI  32
HAYS           SUNNY     36   7  29 N3        30.06R
RUSSELL        SUNNY     36   8  31 NW9       30.04S WCI  29
CONCORDIA      CLEAR     37   9  31 NW9       30.06R WCI  30
SALINA         SUNNY     41  11  29 NW7       30.09R
TOPEKA         CLEAR     39  12  33 NW8       30.07R WCI  33



USA.gov is the U.S. government's official web portal to all federal, state and local government web resources and services.